Hourly Data Report for October 06, 2017

All times are specified in Local Standard Time (LST). Add 1 hour to adjust for Daylight Saving Time where and when it is observed.

ARVIAT A
NUNAVUT

61°05'38.000" N
94°04'18.000" W
10.40 m
2300427
71174
YEK

Download Data

Hourly Data (October 2017)
Hourly Data Report for October 6, 2017
Temp Definition
°C
Dew Point Temp Definition
°C
Rel Hum Definition
%
Wind Dir Definition
10's deg

Wind Spd Definition
km/h
Visibility Definition
km
Stn Press Definition
kPa
Hmdx Definition


Wind Chill Definition


Weather Definition


TIME
00:00 Legend Double Dagger -2.7 -5.3 83 32 30 16.1 99.95   -10 Snow
01:00 Legend Double Dagger -2.7 -5.0 84 32 28 16.1 99.92   -10 LegendNANA
02:00 Legend Double Dagger -2.8 -4.9 86 31 28 16.1 99.92   -10 Snow
03:00 Legend Double Dagger -2.8 -4.6 88 33 30 16.1 99.88   -10 Snow
04:00 Legend Double Dagger -2.5 -4.1 89 32 24 16.1 99.92   -9 LegendNANA
05:00 Legend Double Dagger -2.6 -3.7 92 33 26 16.1 99.92   -9 LegendNANA
06:00 Legend Double Dagger -2.7 -3.8 92 32 22 16.1 99.91   -9 Snow
07:00 Legend Double Dagger -3.2 -4.3 92 33 18 16.1 99.93   -9 LegendNANA
08:00 Legend Double Dagger -3.1 -4.2 92 35 24 12.9 99.89   -10 LegendNANA
09:00 Legend Double Dagger -3.3 -5.5 85 35 22 16.1 99.93   -10 LegendNANA
10:00 Legend Double Dagger -2.9 -5.5 82 36 22 16.1 99.93   -9 LegendNANA
11:00 Legend Double Dagger -2.4 -5.8 78 2 18 16.1 99.93   -8 LegendNANA
12:00 Legend Double Dagger -1.9 -5.4 77 2 17 16.1 99.96   -7 LegendNANA
13:00 Legend Double Dagger -1.9 -5.6 76 3 18 16.1 99.94   -7 LegendNANA
14:00 Legend Double Dagger -2.5 -5.4 80 4 18 16.1 99.96   -8 LegendNANA
15:00 Legend Double Dagger -2.9 -5.3 83 5 13 16.1 99.93   -8 LegendNANA
16:00 Legend Double Dagger -2.5 -4.5 86 6 11 16.1 99.92   -7 LegendNANA
17:00 Legend Double Dagger -2.1 -3.8 88 7 13 16.1 99.94   -7 Snow
18:00 Legend Double Dagger -1.6 -3.7 86 8 11 16.1 99.94   -5 LegendNANA
19:00 Legend Double Dagger -1.5 -3.9 84 9 21 16.1 99.96   -7 LegendNANA
20:00 Legend Double Dagger -1.1 -2.7 89 10 18 16.1 99.97   -6 LegendNANA
21:00 Legend Double Dagger -1.0 -2.3 91 11 17 16.1 99.95   -6 Snow
22:00 Legend Double Dagger -0.3 -2.8 83 11 22 16.1 99.90   -6 LegendNANA
23:00 Legend Double Dagger -0.1 -2.5 84 11 26 16.1 99.88   -6 LegendNANA

Notes on Data Quality.

Legend

  • E = Estimated
  • M = Missing
  • NA = Not Available
  • ‡ = Partner data that is not subject to review by the National Climate Archives
Date modified: